Dewpoint
6 6 7 7 7 6 7 6 7 5 4 5 3 2 2 2 4 3 -2 -4 -3 -2 1 3 3 3 1 -8 -8 -7 -7 -7 -8 -7 -8 -9 -10 -10 -10 -10 -9 -4 -3 -3
5 6 6 7 6 6 5 5 5 6 7 2 -4 -7 -6 -7 4 5 5 4 5 4 4 2 -4 -9 -9 -8 -7 -6 -6 -7 -7 -6 -7 -7 -7 -9 -9 -10 -11 -10 -5 -4
7 5 6 6 5 6 5 5 5 6 2 -10 -9 -9 -10 -10 -10 -10 -11 -11 -11 -11 -11 -10 -9 -8 -7 -7 -6 -7 -6 -5 -5 -6 -6 -6 -6 -6 -8 -8 -10 -10 -8 -5
8 7 8 3 2 3 5 4 3 -1 -9 -10 -10 -10 -10 -9 -11 -11 -10 -8 -9 -8 -9 -8 -7 -6 -5 -5 -4 -4 -4 -4 -4 -5 -5 -5 -5 -5 -6 -7 -9 -10 -9 -7
8 6 4 4 2 2 2 2 -6 -6 -8 -7 -12 -12 -13 -10 -9 -8 -7 -7 -7 -7 -7 -7 -6 -5 -5 -4 -4 -4 -3 -3 -3 -3 -3 -3 -3 -4 -5 -7 -8 -9 -10 -10
6 8 8 1 -8 -8 -3 2 -7 -6 -9 -12 -10 -3 -7 -5 -6 -6 -6 -5 -5 -4 -3 -4 -4 -3 -3 -3 -3 -3 -3 -3 -3 -2 -2 -2 -2 -2 -4 -5 -8 -8 -8 -7
7 7 6 3 -10 -3 5 3 -8 -9 -10 -9 -6 -5 -3 -3 -3 -3 -3 -4 -5 -5 -6 -6 -6 -7 -8 -8 -7 -6 -9 -8 -6 -6 -5 -4 -4 -3 -3 -3 -7 -7 -7 -7
6 7 7 -6 -5 0 -1 -4 -5 -6 -6 -6 -3 -2 -2 -2 -3 -4 -5 -6 -7 -8 -8 -8 -9 -12 -13 -12 -10 -12 -13 -13 -12 -11 -10 -8 -5 -4 -3 -3 -4 -4 -6 -7
4 4 -2 0 0 -0 -4 -5 -6 -5 -5 -4 -3 -2 -2 -3 -4 -6 -8 -9 -10 -10 -10 -12 -14 -15 -14 -13 -15 -17 -17 -16 -15 -11 -9 -8 -6 -5 -4 -3 -4 -4 -5 -7
4 3 -0 1 1 1 -1 -2 -2 -3 -3 -3 -3 -3 -4 -5 -7 -9 -11 -12 -13 -15 -16 -17 -20 -19 -18 -17 -17 -17 -16 -14 -13 -11 -8 -8 -7 -7 -5 -5 -4 -5 -5 -8
3 2 1 1 0 -4 -4 -4 -3 -3 -4 -5 -6 -7 -7 -10 -15 -15 -18 -19 -19 -22 -24 -22 -18 -16 -14 -14 -14 -15 -16 -16 -15 -15 -12 -9 -8 -7 -6 -6 -5 -5 -6 -6
5 2 2 -0 -1 -1 -3 -3 -4 -5 -7 -9 -12 -16 -21 -23 -23 -22 -20 -22 -26 -24 -21 -20 -17 -12 -11 -13 -14 -15 -15 -14 -14 -15 -15 -14 -10 -9 -8 -6 -5 -6 -6 -7
2 1 1 -1 -1 -3 -3 -6 -7 -9 -12 -19 -24 -24 -25 -25 -20 -21 -25 -24 -22 -19 -17 -16 -15 -12 -14 -14 -15 -15 -16 -16 -16 -16 -16 -15 -11 -10 -9 -9 -7 -6 -6 -7
1 0 -2 -2 -3 -5 -6 -8 -11 -17 -22 -24 -24 -26 -25 -23 -24 -23 -21 -19 -16 -16 -15 -15 -15 -15 -16 -18 -20 -20 -19 -13 -14 -15 -16 -16 -15 -11 -9 -9 -9 -8 -7 -7
-1 0 0 -3 -5 -7 -9 -13 -19 -21 -23 -24 -26 -23 -23 -24 -21 -19 -16 -16 -17 -17 -15 -15 -16 -19 -20 -20 -21 -20 -20 -15 -16 -18 -19 -18 -18 -17 -13 -11 -10 -9 -9 -8
-3 -0 -3 -4 -7 -9 -13 -18 -21 -21 -23 -24 -22 -23 -22 -20 -18 -15 -16 -17 -18 -18 -14 -17 -19 -20 -20 -20 -20 -20 -20 -20 -20 -19 -17 -16 -17 -15 -14 -14 -13 -12 -11 -10
-2 -6 -6 -7 -9 -13 -18 -21 -21 -23 -23 -21 -22 -21 -20 -17 -15 -17 -19 -19 -19 -19 -19 -20 -20 -20 -20 -20 -20 -20 -20 -20 -20 -19 -16 -16 -16 -16 -15 -15 -14 -13 -13 -13
-2 -5 -7 -7 -11 -17 -20 -19 -21 -22 -20 -21 -21 -19 -16 -15 -17 -18 -19 -19 -20 -20 -20 -20 -20 -20 -20 -19 -19 -19 -19 -19 -20 -19 -17 -17 -17 -17 -16 -16 -15 -15 -15 -16
-4 -6 -8 -11 -18 -23 -23 -21 -22 -20 -22 -20 -19 -15 -15 -16 -18 -19 -19 -20 -20 -20 -20 -20 -20 -20 -19 -19 -19 -19 -19 -19 -19 -19 -19 -18 -17 -17 -16 -16 -16 -15 -15 -15
-6 -8 -14 -23 -23 -24 -23 -22 -20 -22 -20 -18 -16 -16 -16 -18 -18 -19 -20 -20 -20 -20 -20 -20 -20 -19 -19 -19 -19 -19 -19 -19 -19 -19 -20 -19 -19 -19 -19 -18 -16 -16 -16 -16
-10 -19 -25 -25 -23 -23 -23 -20 -23 -19 -18 -17 -16 -16 -18 -19 -18 -19 -20 -20 -20 -20 -20 -20 -21 -20 -19 -19 -19 -18 -18 -19 -20 -20 -21 -21 -20 -19 -19 -18 -18 -18 -18 -17
-19 -25 -26 -25 -24 -22 -20 -22 -18 -18 -18 -17 -17 -17 -18 -18 -19 -20 -19 -19 -20 -20 -21 -23 -25 -24 -21 -19 -18 -18 -19 -19 -20 -21 -22 -22 -21 -21 -20 -19 -19 -18 -18 -17
-23 -26 -26 -25 -23 -23 -23 -18 -18 -18 -18 -17 -18 -18 -18 -18 -19 -19 -20 -20 -20 -20 -22 -26 -27 -27 -24 -19 -18 -18 -19 -19 -20 -22 -22 -22 -22 -22 -21 -21 -20 -19 -18 -17
-24 -25 -26 -22 -21 -21 -18 -17 -18 -18 -18 -18 -17 -18 -18 -19 -19 -19 -19 -20 -20 -21 -24 -28 -27 -27 -26 -22 -18 -18 -19 -19 -20 -22 -22 -22 -22 -22 -22 -21 -21 -20 -20 -18
-23 -25 -23 -22 -22 -19 -17 -18 -18 -18 -18 -17 -18 -18 -18 -19 -19 -19 -19 -20 -20 -21 -26 -28 -27 -27 -26 -26 -20 -18 -18 -19 -19 -20 -21 -22 -22 -22 -22 -22 -22 -21 -21 -20
-22 -23 -25 -25 -22 -18 -19 -18 -18 -19 -19 -18 -19 -19 -19 -19 -19 -19 -19 -20 -20 -21 -28 -28 -27 -27 -26 -26 -25 -18 -18 -18 -19 -19 -20 -21 -21 -22 -22 -22 -21 -21 -21 -20
-21 -24 -22 -19 -17 -18 -18 -17 -18 -20 -19 -19 -19 -19 -19 -19 -19 -19 -20 -20 -20 -21 -28 -28 -27 -26 -25 -25 -25 -25 -18 -17 -18 -18 -19 -19 -20 -21 -21 -21 -21 -21 -20 -20
Wind_Speed
4 3 3 6 13 16 14 17 9 25 19 18 12 7 12 16 18 15 11 14 17 26 30 36 32 37 30 21 22 23 26 27 32 31 29 27 26 24 24 25 26 28 29 29
4 7 9 13 17 15 17 18 16 21 22 9 2 8 16 17 14 8 10 12 17 20 23 25 22 20 21 25 25 27 28 29 31 30 28 27 27 26 26 27 27 26 23 23
5 5 5 12 13 17 14 11 8 11 8 2 4 7 10 12 15 14 14 15 15 18 18 18 21 24 26 27 30 31 33 32 32 33 31 30 29 28 29 28 27 26 24 22
4 3 10 6 0 7 15 14 10 3 3 3 2 3 5 9 13 16 17 18 17 18 20 20 23 26 30 33 36 38 38 37 37 37 38 36 35 35 32 30 29 27 27 24
2 7 15 12 5 4 6 6 3 4 5 2 2 1 8 14 11 14 14 15 16 18 19 20 21 22 25 27 28 30 30 32 33 34 40 43 43 45 40 33 30 28 27 26
3 4 6 1 3 2 1 7 4 5 3 2 1 3 2 12 10 11 12 15 16 18 19 21 23 25 27 27 27 28 28 29 31 32 36 40 40 40 46 37 31 26 26 25
7 5 7 2 2 2 3 4 3 2 1 2 4 3 2 6 10 12 14 18 19 22 25 26 28 30 32 33 33 34 36 37 38 38 38 34 35 39 38 41 33 26 27 25
3 4 9 3 2 5 1 2 3 4 5 6 8 5 4 7 10 14 18 20 22 25 25 25 28 32 32 31 32 36 37 37 37 36 36 38 39 35 37 40 35 31 26 25
8 6 3 3 5 2 3 3 6 5 3 9 6 4 5 9 14 15 17 20 22 23 25 26 27 28 29 31 35 37 38 39 39 39 39 37 36 36 38 41 39 33 28 25
2 3 5 7 8 9 8 4 3 7 8 4 4 4 4 9 11 14 17 19 20 21 22 25 26 26 26 29 30 32 34 36 38 37 39 37 38 37 35 39 39 35 27 25
4 4 4 8 8 11 11 11 11 8 5 3 2 2 3 7 9 11 14 15 17 20 22 22 22 23 25 26 28 31 34 35 37 38 37 37 36 36 36 38 38 31 22 18
7 13 6 8 17 15 14 11 9 6 4 2 2 2 3 5 7 9 11 16 18 19 20 21 20 22 25 28 30 32 34 34 36 38 38 38 38 40 32 24 23 19 19 17
7 13 14 19 19 15 14 13 10 6 3 1 2 2 4 5 6 10 14 15 18 19 19 20 21 19 27 31 33 35 36 35 36 38 38 36 34 34 37 29 20 18 21 18
17 19 15 21 12 17 15 12 8 6 4 3 3 4 5 7 9 11 14 15 16 18 20 22 24 28 31 34 34 34 33 29 34 36 38 38 32 28 25 25 26 21 17 18
23 15 7 19 21 18 14 11 9 6 5 5 4 5 6 8 10 12 13 15 18 20 20 22 28 30 32 34 34 35 34 34 40 41 37 35 34 29 27 22 19 17 13 3
20 13 15 24 23 19 15 12 9 8 7 5 3 3 6 8 10 11 14 18 20 20 18 25 29 30 32 34 34 36 37 36 37 37 36 32 31 29 25 27 27 23 17 13
24 20 25 25 23 20 16 12 10 9 7 4 2 4 6 9 11 14 16 16 17 19 22 26 28 30 32 33 35 37 39 40 37 33 28 28 29 29 27 25 25 25 25 23
17 22 26 22 24 20 18 15 12 8 5 1 2 6 7 10 14 14 15 17 19 21 25 27 29 32 33 34 36 38 39 38 36 33 28 29 29 27 25 24 23 25 26 26
22 21 22 20 18 17 17 16 12 7 2 1 4 5 9 13 12 14 17 19 21 26 28 29 31 33 34 35 36 38 39 39 38 35 31 25 26 25 24 25 24 23 22 21
25 23 21 20 18 17 17 14 10 5 2 2 4 7 11 11 12 14 18 20 22 25 28 30 32 33 35 37 38 38 39 40 38 35 32 28 29 30 29 27 22 23 23 22
29 25 23 21 20 17 14 12 7 3 1 4 6 9 10 11 13 17 19 20 23 25 27 29 31 33 35 37 38 39 40 40 37 33 32 28 28 26 25 22 24 25 25 25
28 26 23 22 20 18 15 10 6 2 3 5 8 8 9 11 13 16 19 22 25 26 28 30 31 32 35 37 38 39 40 39 34 31 33 31 28 26 24 23 26 25 22 20
27 24 23 21 20 16 12 9 5 3 4 6 7 9 10 13 16 17 19 20 23 25 27 29 30 32 34 36 38 40 41 38 34 31 34 33 30 27 23 25 28 25 22 19
26 24 22 20 18 15 13 10 5 4 5 5 7 9 10 13 14 16 19 21 23 25 26 28 30 31 33 36 39 40 41 39 35 34 33 32 30 27 25 24 26 26 25 22
24 24 23 21 17 15 11 8 6 5 5 6 7 8 10 13 15 17 19 21 22 24 25 27 28 31 33 36 38 39 40 41 39 36 34 32 30 28 26 25 24 25 26 26
25 24 20 16 14 13 9 7 6 6 7 7 7 8 11 13 15 17 19 20 21 23 25 26 28 30 33 35 37 39 40 42 43 40 36 33 31 29 27 26 25 24 24 24
22 20 19 18 16 12 10 8 6 6 6 6 7 9 11 13 15 16 18 19 20 22 24 25 27 29 32 34 36 38 41 42 43 44 42 39 35 31 28 26 25 24 24 23
Wind_Direction
243 239 181 229 238 251 214 239 234 274 273 282 309 322 330 342 338 317 262 230 231 247 266 274 277 279 278 268 285 295 306 304 312 305 300 303 302 297 297 293 289 276 274 275
268 233 226 253 246 235 243 248 257 271 277 301 68 29 14 12 10 337 313 305 315 305 296 300 297 289 282 290 291 301 298 298 307 300 298 300 302 298 295 296 295 287 277 275
274 212 272 279 232 224 239 227 214 253 261 35 39 30 23 25 43 41 32 17 2 354 340 323 308 297 295 300 301 299 293 292 298 298 292 293 294 292 294 294 292 289 280 276
282 70 268 254 21 241 230 247 238 270 108 90 69 49 55 45 31 12 4 352 342 333 325 318 312 307 301 296 294 294 293 292 292 295 291 288 285 285 287 290 289 288 284 279
245 255 284 292 318 192 198 265 198 162 120 86 18 76 67 22 5 353 345 341 340 332 325 316 310 308 303 303 303 297 295 294 295 294 289 287 286 283 279 278 283 283 283 282
125 251 258 230 245 21 354 279 148 126 145 111 17 64 341 354 5 5 1 354 349 348 345 339 337 333 331 331 334 334 328 320 315 312 306 297 292 289 276 270 273 276 278 279
234 262 277 274 160 81 112 309 128 154 111 78 67 97 97 9 6 359 355 355 352 351 350 346 341 337 336 336 333 328 324 321 320 318 310 310 312 304 278 262 260 265 272 275
193 222 272 43 76 171 157 83 72 100 78 101 126 109 35 6 360 350 344 345 344 344 345 343 340 340 341 341 335 332 330 325 317 317 320 320 308 301 293 262 249 262 260 265
190 219 110 102 128 161 315 149 108 84 129 151 124 69 16 349 343 348 345 343 344 344 339 337 340 344 342 339 336 335 333 332 332 324 324 326 321 308 297 276 248 249 252 261
50 199 205 205 234 247 255 226 195 178 154 137 95 52 350 331 335 338 340 343 338 335 342 346 346 343 342 341 341 340 338 338 338 336 336 332 334 321 306 275 249 245 247 255
247 252 175 231 209 178 165 164 159 150 137 108 54 14 317 323 336 341 341 338 347 349 344 343 345 344 342 342 341 340 339 339 340 342 339 340 342 341 307 282 258 244 252 255
240 214 175 166 175 178 169 177 170 166 134 100 10 341 334 355 351 347 353 352 345 340 340 340 339 344 335 339 340 340 338 337 336 337 338 341 337 342 348 307 265 259 250 250
234 191 199 167 168 176 187 166 166 168 150 107 69 49 26 9 9 3 354 346 342 342 343 343 344 336 332 333 333 331 329 329 328 328 330 337 340 343 341 340 334 284 258 246
209 170 136 169 174 173 174 167 166 153 132 121 101 68 50 36 8 350 346 343 345 344 344 341 340 337 335 335 337 336 335 329 327 327 325 324 327 334 345 338 339 335 306 278
179 188 212 184 172 170 173 172 167 157 141 117 87 61 29 0 351 345 342 344 343 344 343 341 340 342 341 340 340 339 337 330 327 327 326 323 318 312 315 327 333 333 341 286
181 193 184 181 177 177 178 177 181 159 139 115 98 37 1 353 344 339 344 344 347 349 345 342 340 342 341 341 339 338 337 333 329 326 324 325 324 322 309 306 308 312 314 318
158 158 173 176 181 182 184 180 172 156 144 140 66 359 348 343 334 345 349 352 354 350 344 342 342 342 342 340 339 339 339 337 336 331 328 326 322 321 316 308 303 302 301 301
212 200 193 194 185 181 179 174 165 158 159 126 356 352 330 326 343 345 352 353 348 345 349 348 345 343 341 340 340 340 339 338 337 332 322 318 317 317 319 317 310 303 299 296
200 196 185 187 186 181 175 168 167 164 171 289 339 312 323 335 341 350 352 351 347 348 350 348 345 343 342 342 340 338 338 338 336 333 328 319 316 313 317 318 318 314 311 305
179 183 181 177 174 175 168 169 169 175 204 299 292 318 327 337 346 352 351 352 352 349 348 347 344 344 343 342 340 338 338 338 335 330 328 319 312 309 304 299 306 305 306 307
176 175 175 173 169 169 171 170 174 170 258 277 308 322 338 344 345 348 350 351 353 350 349 348 347 345 343 342 341 340 340 338 334 332 334 326 321 318 319 311 309 311 305 300
174 173 172 171 171 170 171 174 179 201 265 295 315 331 341 342 344 348 352 352 352 351 350 349 348 346 344 344 344 344 343 340 336 336 327 328 316 312 315 317 308 312 315 312
173 170 169 171 172 171 170 181 196 234 283 306 321 335 339 343 343 345 350 353 351 351 350 348 347 347 347 348 348 349 347 344 342 336 326 329 325 316 298 299 302 306 302 308
169 168 168 170 172 176 181 189 206 245 284 298 324 333 332 334 339 343 349 351 350 350 350 348 349 350 351 352 353 352 351 351 347 340 336 331 329 325 321 306 299 296 291 289
169 169 173 175 179 181 185 198 222 257 276 291 312 318 326 333 339 345 350 350 350 349 350 350 352 353 355 356 357 355 356 356 354 348 343 338 333 328 324 317 310 303 294 285
173 175 177 181 182 184 195 211 234 257 267 288 308 320 330 336 339 343 346 347 349 350 350 352 353 355 357 358 359 359 360 0 359 356 350 346 341 334 327 322 317 312 305 296
174 176 177 178 184 196 206 223 246 266 272 296 315 324 328 334 336 339 343 345 348 351 352 353 354 356 357 358 359 1 3 3 3 0 360 356 350 344 337 330 325 320 315 308
Height
1515 1516 1520 1519 1515 1515 1512 1507 1510 1482 1485 1479 1481 1483 1481 1479 1476 1474 1476 1477 1477 1479 1481 1479 1482 1482 1481 1482 1482 1480 1477 1474 1472 1467 1463 1460 1457 1455 1453 1450 1448 1445 1443 1440
1525 1517 1516 1513 1506 1505 1502 1497 1494 1487 1484 1481 1481 1480 1480 1479 1476 1479 1481 1482 1481 1481 1480 1478 1477 1478 1478 1478 1477 1474 1471 1468 1466 1461 1458 1455 1451 1449 1446 1443 1441 1438 1436 1432
1507 1510 1510 1504 1495 1491 1484 1482 1483 1489 1476 1480 1481 1481 1481 1481 1481 1483 1483 1482 1482 1481 1480 1478 1478 1477 1475 1473 1471 1467 1463 1461 1458 1455 1451 1449 1446 1443 1440 1438 1435 1432 1428 1426
1509 1513 1507 1479 1476 1479 1478 1473 1476 1476 1477 1481 1483 1482 1483 1484 1484 1484 1483 1482 1480 1478 1476 1475 1473 1471 1469 1467 1464 1460 1457 1455 1452 1449 1445 1442 1440 1436 1433 1431 1428 1425 1422 1419
1509 1502 1488 1477 1474 1477 1479 1474 1475 1475 1479 1481 1481 1481 1483 1485 1483 1483 1481 1480 1477 1475 1473 1470 1467 1464 1461 1458 1455 1450 1447 1444 1442 1440 1436 1434 1431 1428 1425 1422 1419 1417 1415 1412
1511 1504 1494 1477 1477 1475 1476 1480 1475 1477 1480 1480 1480 1486 1485 1484 1482 1480 1479 1477 1476 1474 1471 1467 1463 1460 1457 1454 1450 1448 1443 1438 1435 1432 1427 1423 1419 1416 1414 1414 1411 1409 1408 1407
1501 1500 1486 1475 1476 1477 1489 1478 1478 1479 1480 1481 1482 1485 1485 1483 1481 1480 1479 1477 1475 1471 1467 1464 1461 1457 1453 1449 1445 1442 1439 1434 1428 1424 1419 1414 1408 1404 1400 1402 1401 1399 1399 1399
1499 1495 1483 1477 1479 1482 1482 1480 1480 1480 1480 1481 1482 1482 1482 1481 1480 1479 1477 1474 1472 1469 1466 1463 1459 1454 1450 1447 1443 1438 1433 1428 1423 1417 1411 1404 1398 1394 1392 1390 1391 1390 1389 1389
1488 1479 1474 1477 1477 1478 1479 1480 1480 1480 1481 1481 1481 1481 1481 1481 1480 1478 1476 1473 1470 1467 1464 1461 1457 1453 1449 1444 1438 1432 1428 1422 1416 1409 1404 1397 1390 1385 1381 1378 1378 1378 1381 1381
1480 1474 1475 1475 1476 1475 1476 1478 1479 1480 1480 1479 1479 1481 1481 1480 1479 1477 1474 1470 1468 1466 1463 1458 1455 1452 1448 1442 1436 1430 1425 1419 1412 1404 1397 1391 1384 1378 1372 1368 1367 1368 1371 1373
1478 1476 1476 1473 1473 1473 1474 1476 1478 1479 1478 1479 1479 1480 1480 1479 1478 1475 1473 1470 1467 1464 1461 1458 1454 1450 1445 1440 1434 1428 1422 1416 1409 1403 1396 1388 1381 1373 1366 1361 1360 1362 1365 1367
1464 1462 1463 1467 1470 1472 1474 1475 1477 1477 1477 1478 1479 1479 1479 1477 1474 1473 1471 1468 1465 1463 1460 1456 1451 1447 1441 1437 1431 1426 1420 1414 1408 1401 1394 1388 1380 1371 1365 1359 1356 1358 1359 1360
1457 1458 1461 1464 1469 1471 1473 1474 1475 1476 1477 1477 1478 1478 1476 1474 1473 1471 1469 1467 1464 1460 1456 1452 1448 1444 1438 1433 1428 1423 1417 1411 1404 1398 1392 1386 1380 1374 1367 1360 1356 1355 1356 1357
1454 1457 1463 1464 1466 1469 1471 1472 1474 1475 1476 1476 1476 1474 1473 1472 1471 1470 1467 1465 1461 1457 1452 1448 1444 1440 1434 1429 1423 1417 1411 1407 1401 1395 1389 1383 1379 1374 1370 1363 1358 1354 1353 1352
1453 1454 1457 1461 1465 1467 1469 1471 1472 1473 1474 1474 1474 1473 1471 1471 1470 1468 1466 1462 1458 1453 1449 1445 1440 1436 1430 1425 1418 1413 1407 1402 1395 1389 1384 1379 1374 1371 1368 1364 1359 1356 1353 1350
1450 1453 1457 1459 1462 1465 1467 1469 1471 1472 1473 1472 1473 1471 1470 1469 1468 1466 1462 1459 1454 1450 1446 1442 1438 1432 1427 1421 1415 1409 1404 1398 1392 1384 1378 1373 1370 1365 1363 1360 1357 1354 1352 1351
1444 1452 1455 1457 1459 1462 1464 1467 1469 1470 1470 1471 1471 1469 1468 1467 1466 1462 1459 1455 1452 1448 1444 1440 1434 1429 1424 1418 1412 1406 1399 1392 1386 1380 1375 1371 1367 1362 1359 1356 1353 1351 1349 1347
1439 1443 1447 1450 1454 1458 1462 1465 1467 1468 1469 1469 1469 1468 1467 1465 1462 1459 1456 1452 1449 1446 1441 1436 1431 1425 1420 1415 1408 1402 1395 1388 1381 1376 1371 1367 1363 1359 1355 1351 1349 1346 1343 1342
1436 1441 1446 1450 1453 1456 1460 1462 1464 1466 1466 1466 1466 1466 1464 1461 1460 1456 1453 1450 1446 1441 1437 1432 1427 1422 1416 1410 1404 1397 1390 1383 1376 1370 1366 1361 1358 1354 1350 1347 1344 1341 1338 1336
1434 1440 1444 1448 1451 1455 1457 1460 1462 1463 1464 1464 1465 1463 1461 1459 1457 1454 1451 1447 1443 1439 1434 1429 1424 1418 1412 1406 1400 1393 1385 1378 1371 1366 1360 1356 1351 1347 1344 1342 1339 1336 1333 1331
1431 1436 1441 1445 1449 1453 1456 1459 1460 1461 1462 1463 1462 1460 1458 1457 1455 1451 1448 1445 1441 1436 1431 1426 1421 1415 1409 1403 1396 1388 1381 1373 1367 1361 1355 1350 1346 1342 1339 1335 1333 1330 1327 1325
1430 1434 1438 1443 1448 1451 1454 1457 1459 1460 1460 1460 1459 1458 1456 1454 1452 1450 1446 1442 1437 1433 1428 1423 1418 1413 1407 1400 1393 1385 1377 1369 1362 1356 1351 1346 1341 1337 1333 1330 1327 1324 1321 1319
1429 1433 1437 1442 1447 1450 1453 1456 1457 1458 1458 1457 1457 1455 1453 1451 1449 1446 1444 1440 1435 1431 1426 1422 1417 1411 1405 1398 1390 1382 1373 1365 1358 1352 1346 1340 1335 1330 1327 1324 1321 1318 1316 1313
1429 1432 1437 1442 1446 1449 1451 1453 1454 1455 1455 1455 1454 1453 1452 1450 1448 1445 1441 1437 1433 1429 1425 1420 1415 1409 1403 1396 1387 1379 1371 1362 1355 1348 1341 1335 1329 1324 1320 1316 1313 1311 1308 1307
1427 1432 1437 1440 1444 1447 1450 1451 1452 1452 1453 1452 1451 1450 1449 1447 1446 1442 1439 1435 1431 1428 1423 1419 1414 1408 1401 1394 1386 1378 1370 1361 1352 1344 1336 1330 1324 1318 1314 1310 1306 1303 1300 1298
1426 1431 1436 1440 1443 1445 1447 1449 1450 1451 1450 1450 1449 1448 1447 1445 1442 1440 1437 1433 1429 1425 1421 1417 1411 1406 1400 1393 1385 1377 1368 1359 1350 1341 1334 1326 1319 1313 1308 1303 1299 1295 1292 1289
1428 1432 1435 1438 1441 1443 1445 1447 1448 1448 1448 1447 1447 1446 1444 1442 1440 1437 1435 1432 1428 1424 1419 1415 1410 1405 1399 1392 1385 1377 1369 1359 1351 1341 1331 1323 1315 1308 1302 1297 1292 1288 1284 1281